Погода на Пхукете

Таиланд     7°52′37″N   98°23′48″E
темп.,
°C
ветер,
м/с
пор.,
м/с
влажн.,
%
обл.,
%
осадки,
мм/ч
давл.,
гПа
погр.,
м
21 января, пт
пт2101:00+26в77755 0.3 1011638
04:00+26в78785 0.0 1010665
07:00+26всв787713 0.0 1011666
10:00+26всв567493 0.0 1013533
13:00+28в12616 0.0 1011270
16:00+29юз446278 0.0 1007275
19:00+28зсз667056 0.0 1009626
22:00+27сз567289 0.4 1012526
22 января, сб
сб2201:00+27всв5474100 1.4 1011591
04:00+26св5577100 0.0 1009504
07:00+26св457867 0.0 1010546
10:00+26всв45785 0.0 1012552
13:00+27вюв22700 0.0 1009273
16:00+28юз44670 0.0 1006342
19:00+28зсз44720 0.0 1008588
22:00+27сз33710 0.0 1010412
23 января, вс
вс2301:00+27св33730 0.1 1009575
04:00+26в66764 0.0 1008540
07:00+26всв56781 0.0 1009508
10:00+26всв55781 0.0 1011505
13:00+27в12705 0.0 1009202
16:00+29зюз44625 0.0 1005296
19:00+27зсз667561 0.0 1007602
22:00+27зсз567820 0.7 1009291
24 января, пн
пн2401:00+27св457810 1.6 1008376
04:00+26в6677100 0.5 1007545
07:00+26всв567778 0.5 1009509
10:00+26св4476100 0.0 1011417
13:00+27в1265100 0.0 1009173
16:00+29зюз445831 0.0 1006352
19:00+27сз667527 0.0 1007467
22:00+28сз237384 0.6 1009181
25 января, вт
вт2501:00+27всв6574100 0.7 1009509
04:00+27всв55747 0.0 1007487
07:00+26св347550 0.0 1009418
10:00+26св337698 0.0 1011339
13:00+28в116457 0.0 1008159
16:00+30з5561100 0.0 1005363
19:00+28зсз667398 0.0 1007435
22:00+28зсз337330 1.3 1009210